Home   Weather   Terre Haute   Past weeks

Flag for USA Past Weather in Terre Haute, Indiana, USA — Yesterday and Last 2 Weeks

Now
25 °F

Mostly cloudy.


Feels Like: 18 °F
Forecast: 18 / 31 °F
Wind: 6 mph from Southwest

Location: Terre Haute International Airport - Hulman Field

Current Time: Dec 10, 2016 at 11:52:03 am

Latest Report: Dec 10, 2016 at 10:53 am


Visibility: 10 mi

Pressure: 30.62 "Hg

Humidity: 72%

Dew Point: 17 °F

Location of Terre HauteLocation

Past Weather in Terre Haute — Graph

°F

Terre Haute Temperature Yesterday

Maximum temperature yesterday: 27 °F (at 1:53 pm)
Minimum temperature yesterday: 21 °F (at 12:53 am)
Average temperature yesterday: 24 °F

High & Low Weather Summary for the Past Weeks

 TemperatureHumidityPressure
High59 °F (Nov 29, 1:53 pm)93% (Nov 28, 4:53 pm)30.63 "Hg (Nov 28, 4:53 pm)
Low21 °F (Dec 8, 10:53 pm)52% (Dec 7, 12:53 pm)29.27 "Hg (Nov 28, 8:53 pm)
Average38 °F74%30.10 "Hg
* Reported Nov 25 10:53 am — Dec 10 10:53 am, Terre Haute, Weather by CustomWeather, © 2016

Note: Actual official high and low records may vary slightly from our data, if they occured in-between our weather recording intervals... More about our weather records

Advertising

Terre Haute Weather History for the Previous 24 Hours

Scroll right to see more
 ConditionsComfort  
Time TempWeatherWind HumidityBarometerVisibility
10:53 am
Sat, Dec 10
25 °FMostly cloudy.6 mph72%30.62 "Hg10 mi
9:53 am24 °FMore clouds than sun.3 mph75%30.61 "Hg10 mi
8:53 am24 °FPartly sunny.3 mph71%30.60 "Hg10 mi
7:53 am22 °FOvercast.No wind75%30.59 "Hg10 mi
6:53 am24 °FOvercast.3 mph68%30.60 "Hg10 mi
5:53 am24 °FOvercast.6 mph68%30.60 "Hg10 mi
4:53 am23 °FMostly cloudy.No wind72%30.59 "Hg10 mi
3:53 am23 °FMostly cloudy.3 mph68%30.58 "Hg10 mi
2:53 am24 °FOvercast.5 mph65%30.59 "Hg10 mi
1:53 am24 °FOvercast.5 mph65%30.59 "Hg10 mi
12:53 am24 °FOvercast.6 mph65%30.58 "Hg10 mi
11:53 pm
Fri, Dec 9
24 °FOvercast.5 mph65%30.59 "Hg10 mi
10:53 pm24 °FOvercast.8 mph65%30.58 "Hg10 mi
9:53 pm24 °FOvercast.3 mph75%30.58 "Hg10 mi
8:53 pm25 °FOvercast.6 mph72%30.59 "Hg10 mi
7:53 pm24 °FOvercast.3 mph75%30.59 "Hg10 mi
6:53 pm25 °FOvercast.7 mph69%30.59 "Hg10 mi
5:53 pm25 °FOvercast.9 mph63%30.59 "Hg10 mi
4:53 pm26 °FOvercast.7 mph57%30.59 "Hg10 mi
3:53 pm27 °FOvercast.6 mph55%30.57 "Hg10 mi
2:53 pm27 °FOvercast.7 mph55%30.58 "Hg10 mi
1:53 pm27 °FOvercast.5 mph55%30.58 "Hg10 mi
12:53 pm26 °FOvercast.5 mph55%30.59 "Hg10 mi
11:53 am26 °FOvercast.5 mph52%30.61 "Hg10 mi
Weather by CustomWeather, © 2016

See weather overviewHow to use our weather pages